Temp
11 12 8 9 9 9 9 10 10 10 11 11 10 10 10 9 9 9 9 9 9 9 9 9 9 9 9 9 8 8 8 8 8 8 8 8 7 8 8 8 8 8 8
9 7 10 9 10 9 9 10 10 10 10 10 11 10 10 9 8 9 10 9 10 9 9 9 9 9 8 8 9 8 8 8 8 8 8 8 7 7 7 8 7 8 8
8 8 8 7 7 8 8 8 8 9 9 9 9 9 9 9 9 9 9 9 9 9 9 9 8 9 9 8 8 8 8 8 8 7 7 8 8 8 8 8 8 8 8
7 8 9 9 10 9 10 11 10 7 8 9 8 8 7 7 8 8 9 9 9 9 9 9 8 9 9 8 8 8 7 7 8 8 7 7 7 7 7 7 7 8 8
8 8 10 10 11 13 10 10 9 8 8 7 8 7 7 6 8 8 8 8 9 9 8 9 9 8 9 8 8 8 8 7 8 8 8 7 7 7 7 7 8 7 7
10 10 11 11 11 10 9 10 10 9 8 7 8 6 7 5 6 7 8 8 8 9 8 8 9 8 8 9 8 8 8 8 8 8 8 8 7 7 7 7 7 7 7
11 11 10 10 10 10 10 10 10 7 7 7 7 7 6 6 6 7 7 7 8 8 8 8 8 8 8 8 8 8 8 7 8 8 8 7 7 7 7 7 7 7 7
9 9 9 9 9 9 9 9 9 8 7 7 7 7 7 7 7 7 7 7 8 8 8 8 8 8 8 8 8 8 8 8 7 8 8 7 7 7 7 7 7 7 7
7 7 7 7 8 8 8 9 9 9 8 8 7 7 7 6 6 7 6 6 6 7 8 8 8 7 8 8 8 8 8 8 8 7 7 7 7 6 7 7 7 7 7
6 7 7 7 7 8 8 8 9 9 8 7 7 7 7 6 6 6 6 6 6 6 6 7 7 7 7 7 7 7 8 8 7 7 8 7 7 7 7 7 7 7 7
6 7 7 7 7 7 7 7 8 8 7 6 6 5 6 6 6 6 6 6 5 5 6 6 7 7 7 7 7 7 7 7 8 7 8 8 8 8 8 7 7 7 7
6 6 6 6 7 7 7 7 7 7 7 6 6 6 6 6 6 6 6 6 5 6 5 6 5 7 6 7 7 6 6 7 8 7 7 8 8 8 8 7 7 6 6
7 7 7 7 7 7 6 6 6 6 7 6 6 6 6 6 5 5 6 5 5 5 5 5 6 5 6 6 7 6 6 7 7 7 7 7 7 7 7 7 7 6 7
6 6 6 6 6 6 7 6 6 6 6 6 6 6 6 6 5 5 5 6 6 6 6 6 6 6 6 6 6 6 7 7 6 7 7 7 7 7 6 6 6 6 6
5 5 5 6 6 6 6 5 6 6 6 6 6 6 6 6 7 7 6 7 7 7 7 7 6 6 7 7 7 7 7 7 6 7 7 6 6 7 7 6 6 6 6
5 5 5 5 5 5 5 5 6 5 5 5 5 6 6 6 6 6 6 6 7 7 7 6 7 7 7 7 7 7 7 7 7 6 6 6 7 7 7 6 6 5 6
5 5 5 5 5 6 5 5 5 5 5 5 5 5 5 5 5 6 6 6 5 5 6 6 7 6 6 6 7 6 6 6 5 6 6 7 7 7 6 6 6 5 5
5 5 5 5 5 5 5 5 5 4 4 4 3 4 4 4 4 4 4 4 4 5 5 5 6 6 7 6 6 6 6 5 5 5 5 5 5 5 5 6 6 5 5
5 5 5 5 4 4 4 4 4 4 4 3 3 2 2 3 3 3 4 4 4 4 4 5 6 6 6 6 6 6 6 5 5 4 4 4 4 4 4 5 5 5 5
5 4 4 4 4 4 4 4 4 4 3 3 4 5 4 3 3 3 3 3 4 4 4 5 5 6 6 6 6 6 6 5 4 4 4 4 4 4 5 5 6 6 6
4 4 3 4 4 4 4 4 4 4 4 4 4 4 4 4 3 3 3 3 4 4 4 4 4 4 5 5 5 5 5 5 4 4 4 4 4 4 5 4 5 5 5
3 3 3 3 3 3 3 3 3 3 3 3 3 3 3 3 3 3 3 2 2 2 3 3 3 3 3 3 2 3 4 4 4 3 4 4 4 4 4 5 5 4 4
3 3 3 3 2 2 2 2 2 1 1 1 1 1 2 2 2 2 2 2 2 2 1 1 0 1 0 0 0 0 1 2 2 2 3 3 3 3 4 4 4 4 4
2 2 2 2 2 1 0 0 0 0 -0 -0 -0 -0 -0 0 0 1 1 1 1 1 1 1 0 0 0 1 1 1 1 1 1 2 3 3 3 3 4 4 4 4 4
1 2 2 2 1 1 1 0 -0 -0 -1 -1 -2 -1 -1 -1 -1 -0 0 1 1 1 0 0 0 -1 -1 0 0 0 0 1 1 1 0 1 2 2 3 3 3 3 3
0 0 1 1 1 1 1 1 -0 -1 -1 -1 -1 -2 -2 -1 -1 -1 0 1 0 0 0 0 0 -1 -1 -1 -1 -0 1 0 1 1 -0 0 0 0 0 0 1 1 2
Height
3078 3084 3078 3071 3087 3095 3097 3105 3112 3117 3120 3122 3124 3126 3127 3128 3129 3130 3132 3133 3136 3138 3139 3141 3143 3144 3145 3145 3146 3147 3148 3147 3146 3145 3143 3140 3141 3143 3146 3147 3147 3147 3149
3056 3061 3071 3063 3078 3083 3088 3095 3102 3106 3111 3116 3118 3120 3121 3124 3125 3125 3127 3129 3131 3134 3135 3137 3140 3141 3142 3141 3142 3142 3143 3142 3142 3141 3140 3140 3140 3141 3142 3143 3143 3144 3145
3052 3054 3063 3061 3049 3060 3079 3083 3089 3098 3104 3106 3107 3111 3114 3117 3119 3120 3122 3123 3126 3129 3131 3133 3136 3137 3139 3138 3138 3137 3137 3137 3137 3137 3137 3138 3138 3139 3139 3139 3139 3140 3140
3049 3058 3058 3058 3062 3073 3072 3074 3082 3086 3090 3095 3098 3100 3104 3110 3112 3113 3115 3118 3121 3124 3126 3128 3131 3131 3134 3135 3136 3134 3133 3132 3133 3133 3134 3134 3135 3135 3135 3136 3136 3135 3135
3053 3060 3065 3069 3067 3065 3070 3073 3069 3075 3079 3083 3091 3091 3087 3097 3105 3108 3111 3113 3116 3119 3121 3123 3126 3126 3129 3130 3132 3132 3130 3128 3127 3128 3129 3130 3131 3131 3131 3131 3131 3131 3131
3056 3060 3064 3062 3067 3068 3067 3067 3067 3071 3077 3079 3079 3080 3079 3086 3097 3103 3105 3107 3109 3113 3116 3118 3121 3122 3123 3125 3125 3127 3128 3127 3125 3124 3125 3125 3126 3127 3127 3127 3127 3127 3128
3057 3057 3058 3062 3063 3063 3062 3061 3063 3065 3068 3071 3074 3072 3071 3080 3091 3097 3099 3101 3103 3107 3110 3112 3114 3117 3118 3119 3120 3121 3123 3123 3122 3120 3121 3122 3122 3122 3123 3123 3123 3123 3124
3057 3056 3056 3059 3058 3057 3059 3060 3059 3061 3063 3065 3069 3073 3076 3081 3086 3089 3091 3092 3097 3101 3104 3106 3108 3111 3111 3113 3114 3115 3115 3118 3117 3115 3116 3117 3118 3118 3119 3118 3118 3119 3119
3052 3053 3054 3054 3053 3053 3054 3055 3055 3055 3058 3060 3065 3070 3074 3077 3080 3082 3086 3088 3090 3095 3098 3100 3102 3105 3106 3108 3109 3110 3111 3111 3112 3111 3111 3112 3113 3113 3114 3114 3114 3113 3114
3053 3053 3053 3052 3052 3053 3054 3054 3053 3052 3055 3059 3063 3068 3070 3073 3075 3076 3078 3082 3082 3083 3089 3093 3095 3098 3100 3100 3101 3103 3105 3107 3106 3106 3105 3106 3106 3106 3107 3108 3109 3109 3108
3050 3052 3051 3050 3050 3051 3051 3052 3053 3054 3056 3059 3062 3064 3066 3067 3066 3068 3070 3073 3077 3080 3084 3089 3089 3090 3092 3093 3094 3096 3099 3099 3100 3098 3099 3100 3099 3100 3101 3101 3102 3102 3102
3051 3049 3050 3051 3052 3049 3052 3053 3054 3055 3055 3057 3060 3062 3062 3062 3062 3059 3063 3066 3071 3074 3075 3078 3081 3082 3083 3085 3086 3087 3088 3090 3090 3091 3090 3092 3093 3092 3093 3094 3094 3095 3095
3050 3050 3051 3051 3050 3051 3054 3054 3052 3054 3055 3056 3058 3057 3058 3060 3061 3060 3061 3062 3065 3066 3067 3068 3069 3070 3072 3073 3074 3076 3077 3079 3081 3080 3081 3081 3085 3087 3085 3085 3085 3085 3086
3047 3049 3049 3049 3051 3050 3050 3054 3051 3052 3054 3054 3055 3056 3057 3056 3057 3056 3058 3058 3057 3058 3060 3059 3059 3059 3060 3062 3063 3064 3065 3068 3066 3067 3067 3070 3072 3074 3076 3076 3075 3077 3077
3047 3047 3046 3046 3046 3046 3047 3049 3045 3046 3049 3051 3052 3052 3052 3052 3052 3054 3055 3054 3052 3051 3051 3050 3049 3050 3051 3050 3051 3052 3051 3052 3054 3055 3058 3057 3059 3061 3063 3065 3066 3066 3066
3043 3042 3042 3043 3043 3043 3046 3045 3044 3045 3046 3047 3047 3046 3046 3046 3046 3048 3046 3044 3043 3042 3043 3041 3040 3039 3039 3037 3036 3036 3036 3037 3039 3040 3044 3045 3046 3048 3049 3051 3053 3052 3055
3043 3042 3043 3042 3043 3042 3042 3042 3043 3043 3043 3044 3043 3042 3041 3041 3041 3041 3039 3037 3036 3035 3034 3032 3031 3029 3028 3025 3024 3024 3023 3024 3027 3027 3028 3030 3031 3032 3033 3035 3038 3040 3042
3042 3042 3041 3040 3040 3041 3041 3041 3041 3041 3041 3040 3039 3037 3036 3035 3033 3032 3031 3029 3030 3028 3028 3026 3023 3021 3018 3017 3015 3014 3014 3014 3014 3015 3015 3017 3018 3019 3020 3021 3024 3026 3029
3040 3040 3039 3038 3039 3038 3038 3038 3038 3038 3037 3036 3033 3033 3031 3029 3027 3026 3025 3024 3023 3022 3021 3018 3016 3012 3010 3007 3006 3004 3004 3004 3004 3004 3004 3005 3007 3008 3008 3010 3011 3013 3015
3040 3039 3038 3037 3037 3037 3037 3036 3034 3033 3032 3031 3028 3028 3026 3024 3022 3020 3019 3017 3015 3013 3011 3008 3006 3002 3000 2998 2996 2994 2992 2992 2993 2993 2994 2995 2997 2997 2997 2998 3000 3001 3002
3037 3036 3036 3036 3034 3034 3033 3030 3029 3028 3026 3025 3023 3022 3020 3018 3016 3015 3013 3010 3007 3005 3002 2999 2996 2993 2989 2986 2984 2983 2982 2981 2981 2982 2982 2984 2985 2985 2987 2987 2987 2988 2989
3034 3033 3033 3032 3030 3029 3027 3024 3023 3021 3020 3019 3017 3015 3013 3012 3010 3007 3005 3003 3001 2998 2995 2991 2988 2984 2981 2978 2974 2972 2971 2970 2969 2971 2972 2973 2974 2974 2975 2975 2975 2977 2978
3031 3030 3029 3028 3027 3024 3023 3021 3019 3016 3014 3014 3012 3009 3006 3005 3003 3000 2998 2996 2995 2992 2989 2985 2983 2980 2976 2974 2971 2967 2963 2961 2960 2961 2961 2962 2963 2963 2964 2964 2965 2966 2968
3026 3024 3023 3022 3021 3019 3017 3015 3015 3012 3010 3009 3007 3005 3001 2998 2996 2993 2991 2989 2988 2986 2984 2981 2978 2977 2974 2971 2967 2963 2960 2957 2954 2953 2953 2952 2952 2953 2952 2954 2955 2956 2958
3021 3019 3017 3015 3013 3012 3010 3009 3008 3007 3005 3003 3001 2999 2996 2992 2990 2988 2985 2982 2980 2979 2977 2975 2972 2970 2968 2965 2962 2960 2957 2955 2952 2949 2948 2946 2944 2943 2941 2943 2945 2944 2948
3017 3014 3012 3010 3008 3006 3004 3003 3001 2999 2998 2996 2994 2992 2990 2987 2985 2982 2978 2975 2972 2970 2968 2967 2965 2964 2962 2960 2959 2957 2956 2953 2950 2947 2942 2941 2940 2939 2938 2939 2938 2939 2938
Wind_Speed
50 59 64 41 41 39 39 39 36 34 32 32 30 28 24 24 25 25 23 24 23 21 21 18 19 21 21 19 17 18 19 21 20 18 17 16 15 17 19 20 17 19 24
44 51 70 43 46 41 42 41 41 39 36 35 35 34 30 26 27 24 23 23 21 20 18 18 18 20 19 17 16 15 15 16 16 16 16 12 11 14 15 16 16 15 16
17 13 33 35 22 18 33 32 38 39 40 40 39 37 35 31 30 25 23 23 22 20 19 17 18 18 18 19 18 14 13 14 14 16 18 18 16 15 15 15 15 15 14
9 7 12 17 17 10 10 18 39 32 38 51 42 39 38 34 30 26 23 24 22 20 19 19 19 17 16 19 20 16 15 13 14 15 18 20 18 17 16 15 15 16 16
12 13 6 8 6 9 9 14 13 13 30 44 49 51 44 41 39 31 26 24 23 21 21 19 19 17 16 17 19 20 19 16 15 16 16 18 18 18 18 19 18 18 18
7 12 14 13 11 14 10 13 19 20 21 26 23 25 34 42 44 40 29 25 25 24 25 23 20 19 17 15 13 14 17 17 15 17 18 18 18 18 19 20 20 19 17
15 15 12 11 12 10 11 13 13 18 26 27 25 16 25 42 35 33 28 27 26 27 27 27 24 23 20 17 16 16 17 16 15 15 17 17 17 18 19 19 19 20 19
11 10 9 10 9 6 5 8 14 17 20 26 24 28 29 31 32 31 31 28 27 28 29 28 27 27 25 22 21 20 17 17 17 14 15 15 18 18 17 17 20 21 21
2 3 3 2 5 7 8 7 9 14 20 22 22 26 37 34 30 38 37 34 35 29 29 29 30 29 27 26 24 23 22 18 20 18 16 17 19 20 21 20 19 22 21
6 3 0 2 4 6 7 5 4 3 7 13 15 21 28 37 31 35 35 42 39 32 29 29 30 31 29 26 27 26 25 23 22 22 20 21 22 22 22 23 22 22 22
6 5 4 4 3 3 4 4 3 3 4 9 14 18 21 25 29 35 32 41 38 38 33 34 33 33 32 30 31 30 30 29 28 26 25 25 25 25 23 22 24 25 23
3 3 3 3 3 6 5 3 5 7 8 12 17 23 28 28 24 16 21 29 34 34 39 36 47 42 40 39 34 33 34 37 34 32 30 29 28 27 24 25 27 28 26
3 3 3 5 5 5 6 5 3 5 10 11 11 14 20 21 23 16 14 20 19 34 36 36 40 50 58 54 51 46 41 41 46 41 34 33 32 31 29 29 31 31 30
5 6 6 6 7 6 7 10 8 9 11 14 17 17 16 16 17 17 21 26 27 28 30 32 34 36 38 42 39 45 45 48 44 42 43 38 38 37 36 34 34 33 34
6 7 7 7 8 9 8 8 8 10 13 16 18 17 18 21 20 22 25 28 30 30 32 34 36 39 42 44 44 44 41 42 47 54 53 49 45 40 40 40 39 36 37
6 6 6 7 8 8 9 9 8 9 11 12 13 16 19 21 20 20 20 22 22 23 24 26 29 32 33 36 38 38 40 41 42 40 46 51 49 46 45 45 44 44 40
8 8 8 8 9 9 10 11 12 12 13 12 13 15 16 17 19 21 21 21 21 22 24 26 27 28 28 29 31 33 34 36 39 43 47 47 46 45 43 44 45 46 46
9 9 8 8 8 9 10 11 11 13 15 13 14 16 17 18 19 21 22 22 23 24 25 26 27 29 30 29 28 32 33 32 34 37 38 38 38 38 37 38 39 44 47
10 9 9 9 9 11 13 13 15 16 17 17 15 16 18 18 19 20 21 23 24 25 27 27 28 28 29 30 30 30 32 34 34 34 34 34 33 35 37 37 38 40 42
10 8 8 10 12 13 13 13 14 15 18 17 16 15 16 18 20 21 22 22 23 24 27 30 32 31 31 31 31 33 32 33 34 33 33 33 33 33 35 36 37 40 40
10 10 11 12 13 13 14 15 15 16 18 20 21 21 19 21 20 20 21 24 25 27 28 28 29 32 33 32 32 32 32 32 33 35 33 35 37 37 34 32 36 35 37
11 12 14 16 17 16 15 17 19 18 17 18 19 20 19 19 20 21 22 21 20 21 24 27 24 23 26 24 20 22 29 33 31 30 32 34 35 32 33 32 35 37 40
16 17 17 19 21 20 18 18 20 18 16 17 18 18 19 20 21 21 21 21 21 21 21 24 21 17 16 18 22 22 22 20 24 27 29 32 30 32 31 31 32 37 43
18 21 23 23 23 23 21 21 19 20 17 16 17 17 17 17 19 21 24 24 22 22 23 23 19 15 16 19 20 18 23 21 20 20 27 31 32 33 31 35 36 33 40
23 25 26 27 25 26 26 23 25 22 22 20 21 24 22 22 22 22 24 24 24 23 23 23 23 20 23 24 15 13 14 16 15 18 22 15 19 22 32 33 30 30 37
26 24 23 26 26 28 30 28 26 26 25 25 25 25 23 26 27 24 25 22 22 22 23 23 23 18 20 21 21 19 14 14 18 20 15 20 18 19 15 12 14 15 18
Wind_Direction
255 260 239 258 231 233 232 234 236 233 231 238 242 244 244 241 236 234 237 239 242 238 241 245 252 248 244 245 250 259 267 271 270 266 281 284 259 241 249 264 264 253 254
245 235 232 249 230 235 232 232 234 235 234 233 240 244 240 235 236 237 232 237 237 238 239 238 241 245 244 244 246 251 262 266 267 263 264 270 256 239 239 245 259 264 258
228 235 243 252 270 235 242 235 232 240 240 238 235 236 242 230 229 230 231 232 233 233 235 236 237 241 247 247 245 247 257 265 268 263 264 260 260 259 252 251 256 261 261
260 273 328 312 332 291 335 266 255 235 257 235 240 238 234 237 228 219 224 231 233 232 234 230 230 236 245 256 259 250 248 251 259 259 259 265 266 262 262 263 261 260 259
264 245 305 295 344 321 326 288 245 239 236 216 243 245 231 219 223 216 225 230 231 232 234 231 233 235 242 254 266 264 256 248 251 256 255 259 264 264 264 261 263 263 260
263 230 254 291 264 275 253 268 245 223 223 230 249 264 237 206 226 215 233 233 232 231 232 231 233 237 242 248 250 255 265 264 262 266 260 255 261 265 268 268 270 272 269
228 249 249 246 245 246 231 247 243 232 225 242 245 247 211 204 212 223 233 231 229 229 230 231 229 231 235 233 233 239 259 270 270 276 276 267 262 266 269 269 267 266 266
185 208 233 245 253 264 270 264 254 249 237 234 238 209 197 204 219 227 227 228 232 231 232 233 235 229 225 227 235 240 243 259 264 271 273 261 267 269 272 266 258 263 266
181 190 210 270 309 319 313 305 271 251 243 236 232 228 222 221 228 221 222 223 226 233 233 235 238 235 231 236 241 248 252 249 260 260 264 264 265 270 272 269 267 263 262
124 112 97 285 292 295 291 295 265 202 228 224 228 231 229 229 239 236 230 230 234 229 232 234 235 235 239 239 245 254 254 256 256 261 261 262 262 263 268 270 270 272 273
93 86 82 75 53 6 339 336 302 238 208 217 227 228 233 247 254 250 241 236 232 235 237 231 237 245 251 248 250 254 260 257 255 256 260 263 263 266 272 273 273 271 270
79 70 78 59 20 30 30 352 314 282 253 246 246 249 251 256 260 253 256 241 235 246 242 243 232 240 260 263 265 266 275 260 257 259 260 264 269 270 266 265 266 265 264
304 314 291 293 302 302 297 300 310 265 258 243 258 262 250 251 256 245 250 241 259 253 248 251 251 247 245 258 262 267 264 262 261 257 261 267 265 268 263 261 260 259 260
297 286 288 290 282 282 283 264 258 255 256 256 264 272 269 262 263 261 254 262 267 267 265 260 261 261 260 264 263 253 268 262 251 251 268 269 259 258 259 261 259 258 259
281 281 290 289 288 287 280 282 284 275 263 263 263 266 263 277 279 272 266 265 267 267 265 263 261 262 261 263 264 262 261 254 257 254 254 261 262 260 257 258 258 256 257
321 312 295 290 293 292 286 287 282 276 271 273 273 270 271 271 272 271 272 275 277 278 274 273 273 271 269 265 264 261 260 256 257 259 258 259 262 262 260 256 254 252 253
303 302 305 311 306 305 302 294 283 276 271 266 264 264 265 267 270 274 276 279 283 284 284 283 280 278 278 276 273 266 260 257 256 257 258 260 262 261 259 257 251 250 250
300 304 310 307 313 315 306 299 289 282 285 289 285 280 275 278 282 284 283 284 284 284 285 286 284 281 278 275 270 267 264 259 256 257 260 261 261 263 262 255 255 248 249
310 319 314 314 315 311 306 300 297 286 281 283 275 275 279 285 288 292 292 287 284 284 285 286 285 283 280 279 276 271 264 260 258 257 256 253 255 259 261 261 260 252 248
309 306 296 292 292 291 290 287 290 290 289 293 299 298 292 288 294 299 301 301 299 297 296 294 290 285 283 281 279 276 272 265 258 257 257 255 255 258 260 260 258 256 250
309 307 303 301 303 307 305 301 298 295 295 297 298 297 295 289 287 290 295 298 301 303 303 300 298 296 292 285 280 276 273 266 260 257 256 256 258 259 260 255 252 250 249
310 306 308 308 306 307 309 309 309 308 305 301 296 290 288 286 287 293 298 301 306 308 307 308 307 304 298 297 298 295 277 271 265 258 259 262 263 260 256 258 247 246 244
309 301 298 297 294 295 299 302 307 311 313 312 310 310 307 296 288 286 287 291 299 306 306 313 305 313 309 306 312 310 315 306 272 265 263 264 260 255 253 255 248 247 249
301 294 291 289 288 287 292 297 303 302 303 314 317 318 314 314 310 299 290 288 290 294 297 298 299 296 299 316 327 309 301 302 309 286 265 260 261 256 257 255 250 253 249
304 302 293 285 282 279 280 282 287 302 300 311 312 311 310 311 311 311 306 293 282 283 282 287 291 295 303 309 306 311 327 350 325 270 291 263 265 250 254 263 252 258 237
308 307 310 297 288 280 280 282 285 287 292 298 301 300 303 308 310 305 312 295 282 276 278 284 282 280 285 298 301 295 300 319 331 339 309 266 277 269 284 229 201 178 179